This is the latest recevied weather packets stored in our database for station/object N3OZD-10. If no packets are shown the sender has not sent any weather packets the latest 10 day(s).
| Time | Temp. | Humidity | Pressure | Rain* | Wind** | Luminosity | Snow |
|---|---|---|---|---|---|---|---|
| 1777580853 | 17.78° C | 41% | 1007.5 hPa | 0 mm | - | - | - |
| 1777580554 | 17.78° C | 42% | 1007.5 hPa | 0 mm | - | - | - |
| 1777580254 | 18.33° C | 42% | 1007.4 hPa | 0 mm | - | - | - |
| 1777579956 | 17.78° C | 42% | 1007.5 hPa | 0 mm | - | - | - |
| 1777579654 | 17.78° C | 42% | 1007.5 hPa | 0 mm | - | - | - |
| 1777579353 | 17.78° C | 41% | 1007.4 hPa | 0.25 mm | - | - | - |
| 1777579053 | 18.33° C | 42% | 1007.3 hPa | 0.25 mm | - | - | - |
| 1777578753 | 18.33° C | 45% | 1007.3 hPa | 0.25 mm | - | - | - |
| 1777578455 | 17.78° C | 44% | 1007.4 hPa | 0.25 mm | - | - | - |
| 1777577854 | 18.33° C | 43% | 1007.3 hPa | 0.25 mm | - | - | - |
| 1777577554 | 18.33° C | 45% | 1007.4 hPa | 0.25 mm | - | - | - |
| 1777577257 | 18.33° C | 42% | 1007.3 hPa | 0.25 mm | - | - | - |
| 1777576954 | 18.89° C | 42% | 1007.3 hPa | 0.25 mm | - | - | - |
| 1777576654 | 18.33° C | 43% | 1007.3 hPa | 0.25 mm | - | - | - |
| 1777576354 | 18.33° C | 43% | 1007.4 hPa | 0.25 mm | - | - | - |
| 1777576054 | 18.33° C | 46% | 1007.4 hPa | 0.51 mm | - | - | - |
| 1777575754 | 18.33° C | 43% | 1007.3 hPa | 0.25 mm | - | - | - |
| 1777575456 | 19.44° C | 43% | 1007.4 hPa | 0.25 mm | - | - | - |
| 1777575154 | 19.44° C | 41% | 1007.3 hPa | 0.25 mm | - | - | - |
| 1777574854 | 19.44° C | 47% | 1007.2 hPa | 0.25 mm | - | - | - |
| 1777574554 | 18.89° C | 44% | 1007.4 hPa | 0.25 mm | - | - | - |
| 1777574254 | 18.89° C | 45% | 1007.3 hPa | 0.25 mm | - | - | - |
| 1777573954 | 18.33° C | 44% | 1007.4 hPa | 0.76 mm | - | - | - |
| 1777573655 | 18.33° C | 45% | 1007.4 hPa | 1.02 mm | - | - | - |
| 1777573354 | 18.33° C | 47% | 1007.5 hPa | 1.27 mm | - | - | - |
* Rain latest hour (hover to see other rain measurements)
** Current wind speed in m/s (hover to see current wind gust speed)